This demonstration page uses our WeatherBlox Daily Observations layout. Learn more.

36.17497, -115.13722

Hourly Observations for November 20, 2018

Temp ( °F °C ) Dew Point ( °F °C ) Humidity (%) Winds ( mph kmh ) Pressure ( in mb ) Visibility ( mi km ) Precip ( " mm )
12:53 am 00:53 Clear 45 7.2 17 -8.3 33 33 NW 6 9 30.15 1021 10 16.09344 0 0
1:53 am 01:53 Clear 45 7.2 15 -9.4 30 30 N 6 9 30.15 1021 10 16.09344 0 0
2:53 am 02:53 Clear 44 6.7 18 -7.8 35 35 NW 5 7 30.15 1021 10 16.09344 0 0
3:53 am 03:53 Clear 44 6.7 17 -8.3 34 34 WNW 6 9 30.15 1021 10 16.09344 0 0
4:53 am 04:53 Clear 45 7.2 14 -10 29 29 NW 5 7 30.15 1021 10 16.09344 0 0
5:53 am 05:53 Clear 45 7.2 10 -12.2 24 24 NW 6 9 30.15 1021 10 16.09344 0 0
6:53 am 06:53 Sunny 48 8.9 7 -13.9 19 19 N 8 13 30.15 1021 10 16.09344 0 0
7:53 am 07:53 Sunny 48 8.9 10 -12.2 21 21 Calm 30.18 1022 10 16.09344 0 0
8:53 am 08:53 Sunny 50 10 13 -10.6 22 22 WNW 5 7 30.18 1022 10 16.09344 0 0
9:53 am 09:53 Sunny 54 12.2 16 -8.9 22 22 WNW 3 6 30.18 1022 10 16.09344 0 0
10:53 am 10:53 Sunny 58 14.4 10 -12.2 15 15 Calm 30.15 1021 10 16.09344 0 0
11:53 am 11:53 Sunny 60 15.6 9 -12.8 13 13 Calm 30.12 1020 10 16.09344 0 0
12:53 pm 12:53 Sunny 63 17.2 8 -13.3 11 11 Calm 30.09 1019 10 16.09344 0 0
1:53 pm 13:53 Sunny 64 17.8 7 -13.9 10 10 SE 6 9 30.09 1019 10 16.09344 0 0
2:53 pm 14:53 Sunny 65 18.3 6 -14.4 10 10 Calm 30.09 1019 10 16.09344 0 0
3:53 pm 15:53 Sunny 65 18.3 7 -13.9 10 10 Calm 30.09 1019 10 16.09344 0 0
4:53 pm 16:53 Clear 63 17.2 9 -12.8 12 12 Calm 30.09 1019 10 16.09344 0 0
5:53 pm 17:53 Clear 59 15 12 -11.1 15 15 Calm 30.09 1019 10 16.09344 0 0
6:53 pm 18:53 Clear 55 12.8 14 -10 20 20 WNW 3 6 30.09 1019 10 16.09344 0 0
7:53 pm 19:53 Clear 52 11.1 13 -10.6 21 21 NW 5 7 30.12 1020 10 16.09344 0 0
8:53 pm 20:53 Clear 50 10 16 -8.9 26 26 NNW 5 7 30.12 1020 10 16.09344 0 0
9:53 pm 21:53 Clear 47 8.3 14 -10 26 26 WNW 6 9 30.12 1020 10 16.09344 0 0
10:53 pm 22:53 Clear 46 7.8 14 -10 27 27 NW 5 7 30.15 1021 10 16.09344 0 0
11:53 pm 23:53 Clear 45 7.2 14 -10 29 29 NNW 3 6 30.15 1021 10 16.09344 0 0

Powered by AerisWeather